Weather History for Delta, CO

Change the Weather History Date:

Thursday, July 3, 2014

  Actual Average (KMTJ) Record (KMTJ)
Temperature  
Mean Temperature 78 °F 73 °F  
Max Temperature 97 °F 90 °F 100 °F (2007)
Min Temperature 58 °F 56 °F 48 °F (1997)
Degree Days  
Heating Degree Days 0 0  
Month to date heating degree days 0  
Since 1 June heating degree days 39  
Since 1 July heating degree days 0  
Cooling Degree Days 12 8  
Month to date cooling degree days 23  
Year to date cooling degree days 175  
Since 1 June cooling degree days 158  
Growing Degree Days 28 (Base 50)    
Moisture  
Dew Point 37 °F    
Average Humidity 25    
Maximum Humidity 45    
Minimum Humidity 10    
Precipitation  
Precipitation 0.00 in 0.02 in 0.00 in (2014)
Month to date precipitation 0.07  
Year to date precipitation 5.14  
Sea Level Pressure  
Sea Level Pressure 30.15 in    
Wind  
Wind Speed 6 mph (East)    
Max Wind Speed 18 mph    
Max Gust Speed 22 mph    
Visibility 8 miles    
Events Rain , Thunderstorm    
T = Trace of Precipitation, MM = Missing Value Source: NWS Daily Summary

Daily Weather History Graph

Daily Weather History Graph

Search for Another Location

Airport:

Trip Planner

Search our weather history database for the weather conditions in past years. The results will help you decide how hot, cold, wet, or windy it might be!

Date:

Astronomy

Jul. 03, 2014 Rise Set
Actual Time 5:52 AM MDT 8:40 PM MDT
Civil Twilight 5:20 AM MDT 9:12 PM MDT
Nautical Twilight 4:40 AM MDT 9:52 PM MDT
Astronomical Twilight 3:54 AM MDT 10:37 PM MDT
Moon 11:50 AM MDT (7/3) No Moon Set
Length of Visible Light 15h 52m
Length of Day
14h 48m
Waxing Crescent, 33% of the Moon is Illuminated
Jul 3
Waxing Crescent
Jul 5
First Quarter
Jul 12
Full
Jul 18
Last Quarter
Jul 26
New

Hourly Weather History & Observations

Time (MDT) Temp. Dew Point Humidity Pressure Visibility Wind Dir Wind Speed Gust Speed Precip Events Conditions
12:15 AM 70.3 °F 30.0 °F 22% 30.10 in 5.0 mi East 6.9 mph - N/A   Haze
12:35 AM 69.4 °F 31.5 °F 24% 30.11 in 7.0 mi NE 8.1 mph - N/A   Clear
12:55 AM 68.0 °F 34.0 °F 28% 30.11 in 7.0 mi NE 5.8 mph - N/A   Clear
1:15 AM 69.8 °F 32.5 °F 25% 30.12 in 7.0 mi ENE 6.9 mph - N/A   Clear
1:35 AM 70.2 °F 32.0 °F 24% 30.12 in 7.0 mi ENE 5.8 mph - N/A   Clear
1:55 AM 69.3 °F 32.0 °F 25% 30.12 in 5.0 mi East 4.6 mph - N/A   Haze
2:15 AM 65.8 °F 32.4 °F 29% 30.12 in 5.0 mi NE 5.8 mph - N/A   Haze
2:35 AM 63.5 °F 32.9 °F 32% 30.13 in 5.0 mi Calm Calm - N/A   Haze
2:55 AM 63.5 °F 30.2 °F 29% 30.13 in 5.0 mi East 4.6 mph - N/A   Haze
3:15 AM 62.4 °F 30.6 °F 30% 30.13 in 7.0 mi ENE 4.6 mph - N/A   Clear
3:35 AM 62.4 °F 32.0 °F 32% 30.13 in 7.0 mi ENE 4.6 mph - N/A   Clear
3:55 AM 59.4 °F 33.3 °F 37% 30.13 in 7.0 mi East 3.5 mph - N/A   Clear
4:15 AM 60.1 °F 35.4 °F 40% 30.14 in 7.0 mi NE 5.8 mph - N/A   Clear
4:35 AM 58.5 °F 37.4 °F 45% 30.14 in 7.0 mi NNE 5.8 mph - N/A   Clear
4:55 AM 61.0 °F 33.1 °F 35% 30.16 in 10.0 mi NE 9.2 mph - N/A   Clear
5:15 AM 63.0 °F 32.9 °F 32% 30.16 in 7.0 mi NE 10.4 mph - N/A   Clear
5:35 AM 63.1 °F 34.2 °F 34% 30.17 in 10.0 mi NE 9.2 mph - N/A   Clear
5:55 AM 60.8 °F 34.5 °F 37% 30.17 in 5.0 mi NNE 4.6 mph - N/A   Haze
6:15 AM 61.3 °F 30.4 °F 31% 30.18 in 7.0 mi East 5.8 mph - N/A   Clear
6:55 AM 63.1 °F 33.6 °F 33% 30.20 in 7.0 mi ENE 5.8 mph - N/A   Clear
7:15 AM 64.9 °F 34.2 °F 32% 30.20 in 7.0 mi Calm Calm - N/A   Clear
7:55 AM 68.4 °F 34.9 °F 29% 30.21 in 10.0 mi ESE 4.6 mph - N/A   Clear
8:15 AM 67.1 °F 38.1 °F 34% 30.21 in 7.0 mi Calm Calm - N/A   Clear
8:35 AM 70.0 °F 36.0 °F 29% 30.21 in 10.0 mi Calm Calm - N/A   Clear
8:55 AM 71.8 °F 36.0 °F 27% 30.22 in 10.0 mi Calm Calm - N/A   Clear
9:15 AM 73.4 °F 36.0 °F 26% 30.21 in 10.0 mi NE 3.5 mph - N/A   Clear
9:35 AM 76.5 °F 36.0 °F 23% 30.21 in 10.0 mi Calm Calm - N/A   Clear
9:55 AM 77.9 °F 36.7 °F 23% 30.20 in 10.0 mi ESE 3.5 mph - N/A   Clear
10:15 AM 78.8 °F 37.6 °F 23% 30.20 in 7.0 mi East 5.8 mph - N/A   Clear
10:35 AM 81.0 °F 37.4 °F 21% 30.20 in 10.0 mi ESE 5.8 mph - N/A   Clear
10:55 AM 82.6 °F 37.0 °F 20% 30.19 in 10.0 mi ESE 5.8 mph - N/A   Clear
11:15 AM 85.8 °F 34.2 °F 16% 30.19 in 10.0 mi ESE 5.8 mph - N/A   Clear
11:35 AM 88.0 °F 35.6 °F 16% 30.18 in 10.0 mi SE 5.8 mph - N/A   Clear
11:55 AM 87.8 °F 37.6 °F 17% 30.18 in 10.0 mi South 4.6 mph - N/A   Clear
12:15 PM 88.7 °F 37.2 °F 16% 30.18 in 10.0 mi Calm Calm - N/A   Clear
12:35 PM 90.3 °F 37.9 °F 16% 30.17 in 10.0 mi WSW 3.5 mph - N/A   Clear
12:55 PM 91.8 °F 37.2 °F 15% 30.16 in 10.0 mi Calm Calm - N/A   Clear
1:15 PM 93.2 °F 35.6 °F 13% 30.14 in 10.0 mi Calm Calm - N/A   Clear
1:35 PM 94.3 °F 34.5 °F 12% 30.13 in 10.0 mi SSW 3.5 mph - N/A   Clear
1:55 PM 95.4 °F 35.6 °F 12% 30.12 in 10.0 mi South 5.8 mph - N/A   Clear
2:15 PM 96.4 °F 36.5 °F 12% 30.11 in 10.0 mi SSW 11.5 mph - N/A   Clear
2:35 PM 94.8 °F 36.0 °F 13% 30.11 in 10.0 mi SW 8.1 mph 17.3 mph N/A   Clear
2:55 PM 96.8 °F 34.7 °F 11% 30.10 in 10.0 mi South 9.2 mph - N/A Thunderstorm Clear
3:15 PM 94.8 °F 33.1 °F 11% 30.11 in 10.0 mi Calm Calm - N/A Thunderstorm Scattered Clouds
3:35 PM 94.6 °F 35.1 °F 12% 30.10 in 10.0 mi NE 11.5 mph 17.3 mph N/A   Scattered Clouds
3:55 PM 97.7 °F 32.0 °F 10% 30.10 in 10.0 mi NE 12.7 mph - N/A   Clear
4:15 PM 97.2 °F 34.0 °F 11% 30.09 in 10.0 mi NNE 15.0 mph 18.4 mph N/A Thunderstorm Clear
4:35 PM 96.1 °F 32.7 °F 11% 30.09 in 7.0 mi ENE 12.7 mph 16.1 mph N/A   Clear
4:55 PM 89.2 °F 40.3 °F 18% 30.10 in 10.0 mi SSE 18.4 mph - N/A   Clear
5:15 PM 85.1 °F 44.2 °F 24% 30.13 in 7.0 mi South 10.4 mph - N/A   Clear
5:35 PM 82.2 °F 47.5 °F 30% 30.12 in 10.0 mi ESE 5.8 mph 9.2 mph N/A Rain , Thunderstorm Light Thunderstorms and Rain
5:55 PM 84.0 °F 44.6 °F 25% 30.13 in 3.0 mi Calm Calm - N/A   Haze
6:15 PM 82.4 °F 48.2 °F 30% 30.12 in 7.0 mi ESE 6.9 mph - N/A   Scattered Clouds
6:35 PM 81.3 °F 50.9 °F 35% 30.13 in 4.0 mi NW 8.1 mph - N/A   Haze
6:55 PM 82.6 °F 46.9 °F 29% 30.13 in 7.0 mi ENE 3.5 mph - N/A   Mostly Cloudy
7:15 PM 84.9 °F 37.6 °F 19% 30.12 in 7.0 mi SE 12.7 mph 21.9 mph N/A   Overcast
7:35 PM 84.0 °F 43.2 °F 24% 30.12 in 7.0 mi West 10.4 mph - N/A   Scattered Clouds
7:55 PM 83.5 °F 44.8 °F 26% 30.12 in 7.0 mi WNW 8.1 mph - N/A   Clear
8:15 PM 81.7 °F 43.2 °F 26% 30.14 in 7.0 mi South 5.8 mph 16.1 mph N/A   Clear
8:35 PM 82.2 °F 42.8 °F 25% 30.14 in 4.0 mi West 5.8 mph - N/A   Haze
8:55 PM 80.6 °F 43.7 °F 27% 30.14 in 7.0 mi North 4.6 mph - N/A   Clear
9:15 PM 80.8 °F 41.9 °F 25% 30.14 in 7.0 mi Calm Calm - N/A   Clear
9:35 PM 79.3 °F 43.7 °F 28% 30.15 in 7.0 mi East 4.6 mph - N/A   Scattered Clouds
9:55 PM 81.7 °F 39.7 °F 22% 30.14 in 7.0 mi Calm Calm - N/A   Scattered Clouds
10:15 PM 80.1 °F 42.3 °F 26% 30.16 in 10.0 mi NNE 3.5 mph - N/A   Scattered Clouds
10:35 PM 77.7 °F 41.9 °F 28% 30.17 in 7.0 mi ENE 5.8 mph - N/A   Clear
10:55 PM 76.8 °F 42.4 °F 29% 30.17 in 7.0 mi ENE 6.9 mph - N/A   Clear
11:15 PM 74.7 °F 43.0 °F 32% 30.18 in 10.0 mi East 8.1 mph - N/A   Clear
11:35 PM 73.4 °F 42.4 °F 33% 30.19 in 7.0 mi East 5.8 mph - N/A   Clear
11:55 PM 70.9 °F 44.8 °F 39% 30.19 in 7.0 mi North 3.5 mph - N/A   Clear